sat.trackr.live / text

‹ back to catalog

STARLINK-32452

NORAD 61961 · 2024-210C

PAYLOAD ACTIVE UNKNOWN

§ Identity

Operator
Country
US
Launch date
2024-11-14
Launch site
AFETR
Launch vehicle
Mass (kg)
RCS (m²)

Purposes: comms

External: N2YO · Heavens-Above · Gunter

§ Orbital elements

Epoch: 2026-09-21T01:48:54.428544Z

Period
94.27 min
Inclination
43.0028°
Eccentricity
0.0001440
Mean motion
15.27578808 rev/d
Perigee alt
482.1 km
Apogee alt
484.0 km
Semi-major
6,861.2 km
B*
3.1930e-4
RAAN
149.3031°
Arg perigee
263.9983°
Mean anomaly
96.0704°
Rev number
10,487

§ Raw data

STARLINK-324521 61961U 24210C   26264.07562996  .00008534  00000+0  31930-3 0  99942 61961  43.0028 149.3031 0001440 263.9983  96.0704 15.27578808104879

JSON: /api/v1/satellites/61961 · /tle

For live sub-satellite position, see the globe view (requires WebGL).

§ Visibility from observer

Set your observer location to see the next 7 days of passes ≥ 10°. The values pass through the URL so the page stays shareable.

No JS? Fill the form by hand. The geolocation button needs JavaScript.